TDRS 3 1 19548U 88091B 21018.44657745 -.00000300 00000-0 00000-0 0 9991 2 19548 14.0560 355.5450 0039720 321.9478 272.4535 1.00268944105577 HST 1 20580U 90037B 21019.18795139 .00000444 00000-0 15912-4 0 9994 2 20580 28.4710 332.6506 0002476 252.1106 296.1712 15.09537364488685 TDRS 5 1 21639U 91054B 21018.67606775 .00000084 00000-0 00000-0 0 9998 2 21639 14.2513 8.8492 0025176 358.0007 187.2418 1.00280392107907 TDRS 6 1 22314U 93003B 21018.44259693 -.00000296 00000-0 00000-0 0 9999 2 22314 14.0764 12.0253 0005580 63.4068 156.1308 1.00270096102590 TDRS 7 1 23613U 95035B 21019.04762233 -.00000202 00000-0 00000+0 0 9991 2 23613 14.1458 2.7013 0027548 30.0804 187.8899 1.00271038 93345 ISS (ZARYA) 1 25544U 98067A 21019.26407080 .00000787 00000-0 22186-4 0 9995 2 25544 51.6466 359.3118 0000279 283.9595 183.5470 15.49302228265512 LANDSAT 7 1 25682U 99020A 21019.09429415 .00000036 00000-0 17684-4 0 9999 2 25682 98.0548 81.0845 0000973 91.0947 269.0369 14.57187972157643 TERRA 1 25994U 99068A 21019.20855949 .00000051 00000-0 21412-4 0 9996 2 25994 98.1928 96.2566 0001324 98.9047 283.0786 14.57121013121732 TDRS 8 1 26388U 00034A 21018.63643862 -.00000235 00000-0 00000-0 0 9995 2 26388 9.5633 46.0735 0019297 314.7038 75.7029 1.00278815 75378 TIMED 1 26998U 01055B 21018.84627550 .00000093 00000-0 14075-4 0 9997 2 26998 74.0707 224.3929 0002205 256.1862 103.9073 14.88259911 36483 TDRS 9 1 27389U 02011A 21018.46288740 -.00000289 00000-0 00000+0 0 9993 2 27389 7.9371 65.4793 0027376 278.0284 238.7881 1.00278641 70629 AQUA 1 27424U 02022A 21019.09048513 .00000117 00000-0 36054-4 0 9999 2 27424 98.2152 322.5650 0002386 59.7810 319.6218 14.57117142995321 TDRS 10 1 27566U 02055A 21018.79500976 .00000089 00000-0 00000-0 0 9990 2 27566 7.2811 52.6195 0009575 277.1339 263.8263 1.00265464 66429 SORCE 1 27651U 03004A 21018.84996475 .00000055 00000-0 19881-4 0 9993 2 27651 39.9937 208.7516 0020932 94.3750 265.9431 14.89221132976315 AURA 1 28376U 04026A 21018.81773863 .00000092 00000-0 30431-4 0 9999 2 28376 98.2157 324.4570 0001188 71.4909 288.6418 14.57109669878281 SWIFT 1 28485U 04047A 21018.86176410 .00000872 00000-0 28892-4 0 9997 2 28485 20.5576 316.7184 0010836 261.4186 98.5020 15.04831961885946 THEMIS A 1 30580U 07004A 21017.70453078 -.00000532 00000-0 25565-1 0 9997 2 30580 16.1841 29.2004 8399421 70.1782 356.1398 0.87834924 23901 THEMIS D 1 30797U 07004D 21017.68121706 -.00000579 00000-0 00000-0 0 9991 2 30797 13.7692 13.1554 8371785 87.9549 353.8566 0.87837155 23708 THEMIS E 1 30798U 07004E 21017.74000678 -.00000585 00000-0 00000-0 0 9990 2 30798 13.3011 24.6581 8364782 79.3155 354.9554 0.87841345 48548 AIM 1 31304U 07015A 21018.66400158 .00000867 00000-0 51595-4 0 9996 2 31304 97.8837 275.1865 0005043 359.3586 0.7637 15.14045373753247 FGRST (GLAST) 1 33053U 08029A 21018.81215389 .00000522 00000-0 13039-4 0 9991 2 33053 25.5836 73.6935 0012202 342.0455 17.9648 15.11445447695863 WISE 1 36119U 09071A 21019.06011854 .00000575 00000-0 21985-4 0 9991 2 36119 97.3039 58.1678 0002443 17.9945 342.1382 15.30537207616791 TDRS 11 1 39070U 13004A 21018.79439910 .00000084 00000-0 00000+0 0 9992 2 39070 3.5287 335.0344 0004401 24.8235 230.1289 1.00274929 29179 TDRS 12 1 39504U 14004A 21018.82100609 -.00000265 00000-0 00000-0 0 9992 2 39504 4.3932 340.2501 0001945 316.5203 76.2296 1.00276565 24479 GPM-CORE 1 39574U 14009C 21018.82228057 .00003000 00000-0 47478-4 0 9995 2 39574 65.0052 139.0955 0010689 285.1232 74.8731 15.55752101391541 MMS 1 1 40482U 15011A 21012.29541450 -.00001954 00000-0 00000+0 0 9991 2 40482 32.0950 118.7739 8477888 27.5539 329.4057 0.28531793 11804 MMS 2 1 40483U 15011B 20359.39583333 -.00000873 00000-0 00000+0 0 9991 2 40483 31.9421 119.0520 8478594 26.9368 187.7615 0.28570892 11736 MMS 3 1 40484U 15011C 20359.39583333 -.00000874 00000-0 00000+0 0 9993 2 40484 31.9509 119.0403 8480379 26.9346 187.7683 0.28571045 11730 MMS 4 1 40485U 15011D 20359.39583333 -.00000873 00000-0 00000+0 0 9993 2 40485 31.9433 119.0523 8479943 26.9371 187.7469 0.28570861 11730 TDRS 13 1 42915U 17047A 21018.61154044 -.00000096 00000-0 00000-0 0 9993 2 42915 5.2429 330.5703 0013142 92.7106 263.5458 1.00272440 12536 JPSS-1 1 43013U 17073A 21019.10861833 .00000030 00000-0 35111-4 0 9990 2 43013 98.7409 319.9154 0001377 86.8204 273.3130 14.19548414164256